[[{"header":{"parameterUnit":"m.s-1","parameterCategory":1,"la1":30.2991,"la2":30.254,"lo1":-89.0895,"lo2":-89.0444,"dx":0.0017,"dy":0.0017,"nx":28,"ny":28,"refTime":"2022-11-07T09:00:00:Z","depth":0,"parameterNumber":2,"parameterNumberName":"U-component_of_WINDS"},"data":[0,0,0,0,0,0,0,0,0,0,0,0,0,0,0,0,0,0,0,0,0,0,0,0,0,0,0,0,0,0,0,0,0,0,0,0,0,0,0,0,0,0,0,0,0,0,0,0,0,0,0,0,0,0,0,0,0,0,-3.9061,-3.9063,0,-3.9204,-3.9205,-3.9207,-3.9188,-3.9185,-3.9183,-3.9181,-3.9332,-3.9338,-3.9344,0,0,0,0,0,0,0,0,0,0,0,0,0,-3.8778,-3.8783,-3.9061,-3.9063,-3.9065,-3.9203,-3.9205,-3.9207,-3.9188,-3.9185,-3.9182,-3.918,-3.933,-3.9337,-3.9344,0,0,0,0,0,0,0,0,0,0,0,0,0,-3.8909,-3.8785,-3.9061,-3.9072,-3.9074,-3.9203,-3.9206,-3.9208,-3.9189,-3.9185,-3.9182,-3.9178,-3.9327,-3.9336,-3.9345,-3.9474,0,0,-3.9374,-3.9378,0,0,0,0,0,0,0,0,-3.8901,-3.8919,-3.9068,-3.9071,-3.9074,-3.9174,-3.9161,-3.9297,-3.919,-3.9145,-3.9181,-3.9177,-3.9283,-3.9295,-3.933,-3.9481,-3.9488,-3.9375,-3.938,-3.9385,-3.9387,0,0,0,0,0,0,0,-3.8892,-3.8913,-3.9118,-3.9071,-3.9074,-3.9071,-3.9086,-3.9187,-3.9232,-3.9149,-3.9148,-3.9165,-3.9283,-3.9321,-3.9333,-3.949,-3.9375,-3.9383,-3.9389,-3.9392,-3.9757,-3.9761,0,0,0,0,0,0,-3.888,-3.8905,-3.9113,-3.9122,-3.8977,-3.9079,-3.9096,-3.9146,-3.9231,-3.9241,-3.9168,-3.9163,-3.9307,-3.9322,-3.9339,-3.9497,-3.9384,-3.9393,-3.9399,-3.9753,-3.9758,-3.9762,0,0,0,0,0,0,-3.8874,-3.8898,-3.9107,-3.9014,-3.904,-3.9088,-3.9144,-3.915,-3.9188,-3.9245,-3.9254,-3.9197,-3.9305,-3.9325,-3.9441,-3.9502,-3.9397,-3.9406,-3.9748,-3.9754,-3.976,-3.9813,0,0,0,0,0,0,-3.8865,-3.8896,-3.8944,-3.9015,-3.9045,-3.9206,-3.9148,-3.9156,-3.9204,-3.9199,-3.9275,-3.9285,-3.9303,-3.9427,-3.945,-3.9513,-3.9413,-3.9743,-3.9751,-3.9758,-3.9807,-3.9821,-3.9833,0,0,0,0,0,-3.8855,-3.8954,-3.8947,-3.8972,-3.9106,-3.9209,-3.9227,-3.9245,-3.9208,-3.9258,-3.9295,-3.9282,-3.9491,-3.9439,-3.9465,-3.9531,-3.9739,-3.9749,-3.9757,-3.9801,-3.9818,-3.9832,0,0,0,0,0,0,-3.8891,-3.8964,-3.8956,-3.908,-3.9139,-3.9206,-3.9269,-3.9263,-3.9334,-3.9327,-3.9348,-3.9365,-3.9483,-3.9518,-3.9459,-3.9662,-3.961,-3.9625,-3.9634,-3.9651,-3.9664,-3.9654,-3.9421,0,0,0,0,0,-3.8913,-3.899,-3.9049,-3.9153,-3.9183,-3.9221,-3.9267,-3.9276,-3.9338,-3.9363,-3.9408,-3.947,-3.955,-3.9602,-3.9679,-3.9811,-3.9829,-3.987,-3.9883,-3.9893,-3.9906,-3.9982,-4.0001,-3.9792,-3.9792,-3.9792,0,0,-3.896,-3.9009,-3.9057,-3.9162,-3.9208,-3.9289,-3.9242,-3.9329,-3.939,-3.9376,-3.9488,-3.9524,-3.9595,-3.972,-3.9777,-3.9753,-3.9968,-3.9905,-3.9913,-3.9921,-3.9993,-4.0013,-4.003,-3.9799,-3.9797,-3.9796,0,0,-3.9088,-3.9131,-3.9224,-3.9271,-3.9341,-3.9366,-3.9388,-3.9456,-3.9479,-3.9591,-3.9584,-3.9657,-3.9793,-3.9845,-3.9889,-4.0036,-4.0028,-4.0061,-4.013,-4.0203,-4.022,-4.0234,-4.0289,-4.0309,-4.0073,-4.0073,-4.0073,0,-3.9138,-3.9257,-3.9272,-3.9361,-3.9408,-3.9398,-3.9493,-3.9539,-3.9631,-3.9665,-3.9636,-3.9808,-3.9855,-3.9993,-4.0029,-4.0064,-4.0092,-4.0053,-4.0215,-4.0231,-4.0245,-4.0297,-4.0318,-4.0077,-4.0077,-4.0076,-4.0076,0,-3.9317,-3.94,-3.9466,-3.9554,-3.9609,-3.97,-3.9731,-3.9785,-3.979,-3.9818,-3.9934,-3.999,-4.0078,-4.0111,-4.0117,-4.0251,-4.0234,-4.021,-4.016,-4.0268,-4.0318,-4.0338,-4.0082,-4.0081,-4.008,-4.0079,0,0,-3.9471,-3.9566,-3.9591,-3.9632,-3.9709,-3.9774,-3.9866,-3.9951,-3.9998,-4.0062,-4.0141,-4.0257,-4.0236,-4.0286,-4.0297,-4.0361,-4.0477,-4.0329,-4.0331,-4.0357,-4.0632,-4.0651,-4.0673,-4.0471,-4.0475,-4.0478,-4.0626,0,-3.9608,-3.9768,-3.9785,-3.9929,-4.0007,-4.0,-4.008,-4.0137,-4.0166,-4.0238,-4.0271,-4.0354,-4.0318,-4.0349,-4.0411,-4.045,-4.0533,-4.0439,-4.0548,-4.0551,-4.0532,-4.0699,-4.0719,-4.0857,-4.0646,-4.0649,-4.0651,0,-3.9788,-3.9857,-4.0008,-4.0076,-4.0109,-4.0181,-4.0261,-4.033,-4.0395,-4.0412,-4.0468,-4.0471,-4.0568,-4.0512,-4.0647,-4.0583,-4.0628,-4.0654,-4.066,-4.0673,-4.0609,-4.0719,-4.0901,-4.0922,-4.0682,-4.068,-4.0677,0,-3.9889,-4.0019,-4.0127,-4.0161,-4.0242,-4.0293,-4.033,-4.0391,-4.0442,-4.0513,-4.0546,-4.0627,-4.0673,-4.0737,-4.0763,-4.0719,-4.0898,-4.0843,-4.0917,-4.0917,-4.0957,-4.0954,-4.1151,-4.0982,-4.0982,-4.0981,-4.0981,0,-4.004,-4.0134,-4.0173,-4.024,-4.0346,-4.0364,-4.0469,-4.0503,-4.0559,-4.0634,-4.0632,-4.0702,-4.0731,-4.0807,-4.0828,-4.0939,-4.0959,-4.0977,-4.0982,-4.0978,-4.0976,-4.101,-4.1002,-4.0987,-4.0986,-4.0985,-4.0984,0,-4.0171,-4.02,-4.0318,-4.0385,-4.0404,-4.0479,-4.0537,-4.0603,-4.0631,-4.0726,-4.075,-4.0795,-4.0884,-4.0916,-4.1025,-4.1039,-4.1168,-4.1164,-4.1146,-4.1147,-4.122,-4.1214,-4.1447,-4.148,-4.1287,-4.1289,-4.1291,0,-4.0267,-4.0339,-4.0413,-4.0462,-4.05,-4.058,-4.0631,-4.0653,-4.0707,-4.0788,-4.0845,-4.0933,-4.1005,-4.1149,-4.1193,-4.1277,-4.1277,-4.1352,-4.1289,-4.1284,-4.1281,-4.1277,-4.1285,-4.1365,-4.1367,-4.1369,-4.137,0,-4.0435,-4.0446,-4.0519,-4.0599,-4.066,-4.0724,-4.0786,-4.0827,-4.0858,-4.0919,-4.101,-4.1066,-4.1177,-4.1267,-4.1353,-4.1392,-4.1388,-4.1389,-4.1411,-4.1409,-4.1397,-4.1407,-4.118,-4.1384,-4.1383,-4.1382,-4.1381,-4.138,-4.0553,-4.0617,-4.0679,-4.0762,-4.081,-4.0869,-4.0934,-4.097,-4.1046,-4.1137,-4.1146,-4.1244,-4.131,-4.1425,-4.1469,-4.1548,-4.1527,-4.1558,-4.1567,-4.1574,-4.1581,-4.1382,-4.1563,-4.1563,-4.1562,-4.1562,-4.1562,0,-4.0722,-4.0762,-4.0837,-4.0924,-4.0989,-4.0977,-4.1045,-4.1102,-4.1188,-4.1248,-4.1319,-4.1425,-4.1512,-4.1562,-4.165,-4.1703,-4.1704,-4.1726,-4.1723,-4.1733,-4.1593,-4.1567,-4.1724,-4.1724,-4.1724,-4.1724,-4.1724,-4.1724,-4.0818,-4.0927,-4.0946,-4.1079,-4.1119,-4.1215,-4.1255,-4.131,-4.1358,-4.1476,-4.1547,-4.1579,-4.1637,-4.1728,-4.1808,-4.1821,-4.1854,-4.1879,-4.189,-4.1759,-4.1743,-4.1727,-4.1702,-4.1885,-4.1885,-4.2023,-4.2025,-4.2026]},{"header":{"parameterUnit":"m.s-1","parameterCategory":1,"la1":30.2991,"la2":30.254,"lo1":-89.0895,"lo2":-89.0444,"dx":0.0017,"dy":0.0017,"nx":28,"ny":28,"refTime":"2022-11-07T09:00:00:Z","depth":0,"parameterNumber":3,"parameterNumberName":"V-component_of_WINDS"},"data":[0,0,0,0,0,0,0,0,0,0,0,0,0,0,0,0,0,0,0,0,0,0,0,0,0,0,0,0,0,0,0,0,0,0,0,0,0,0,0,0,0,0,0,0,0,0,0,0,0,0,0,0,0,0,0,0,0,0,-1.9078,-1.9078,0,-1.9071,-1.9071,-1.9071,-1.9039,-1.9038,-1.9038,-1.9037,-1.9031,-1.9032,-1.9032,0,0,0,0,0,0,0,0,0,0,0,0,0,-1.9066,-1.9066,-1.9078,-1.9078,-1.9078,-1.9071,-1.9071,-1.9071,-1.9039,-1.9038,-1.9037,-1.9037,-1.9031,-1.9032,-1.9032,0,0,0,0,0,0,0,0,0,0,0,0,0,-1.9066,-1.9066,-1.9078,-1.9061,-1.906,-1.9071,-1.9071,-1.9071,-1.9039,-1.9038,-1.9037,-1.9036,-1.9031,-1.9032,-1.9032,-1.906,0,0,-1.9035,-1.9035,0,0,0,0,0,0,0,0,-1.9066,-1.9067,-1.9064,-1.9063,-1.9061,-1.9055,-1.9064,-1.9067,-1.904,-1.9047,-1.9037,-1.9036,-1.904,-1.904,-1.9041,-1.9059,-1.9059,-1.9035,-1.9035,-1.9036,-1.9036,0,0,0,0,0,0,0,-1.9066,-1.9067,-1.9075,-1.9064,-1.9062,-1.9055,-1.9053,-1.9065,-1.905,-1.9047,-1.9044,-1.9044,-1.9039,-1.904,-1.9041,-1.9059,-1.9035,-1.9036,-1.9036,-1.9036,-1.91,-1.9101,0,0,0,0,0,0,-1.9068,-1.9067,-1.9076,-1.9075,-1.9061,-1.9056,-1.9054,-1.9058,-1.905,-1.9047,-1.9045,-1.9042,-1.904,-1.904,-1.904,-1.9072,-1.9036,-1.9037,-1.9037,-1.9098,-1.91,-1.9101,0,0,0,0,0,0,-1.9068,-1.9069,-1.9076,-1.907,-1.9071,-1.9057,-1.9061,-1.9058,-1.906,-1.9048,-1.9046,-1.9049,-1.9039,-1.9039,-1.9055,-1.9071,-1.9037,-1.9038,-1.9097,-1.9099,-1.9101,-1.9135,0,0,0,0,0,0,-1.9068,-1.907,-1.908,-1.9071,-1.9071,-1.909,-1.9062,-1.9059,-1.9061,-1.9058,-1.9052,-1.905,-1.9038,-1.9054,-1.9056,-1.9072,-1.9038,-1.9096,-1.9098,-1.91,-1.9133,-1.9138,-1.9143,0,0,0,0,0,-1.9068,-1.909,-1.908,-1.9081,-1.9083,-1.9091,-1.9091,-1.9077,-1.9063,-1.9073,-1.9065,-1.905,-1.9069,-1.9056,-1.9058,-1.9074,-1.9094,-1.9097,-1.91,-1.913,-1.9137,-1.9143,0,0,0,0,0,0,-1.9101,-1.9089,-1.9078,-1.9098,-1.9096,-1.9086,-1.9098,-1.9085,-1.9087,-1.9084,-1.9067,-1.9066,-1.9084,-1.9081,-1.9066,-1.91,-1.9079,-1.9082,-1.9102,-1.9108,-1.9113,-1.9114,-1.9039,0,0,0,0,0,-1.9111,-1.9118,-1.9107,-1.9126,-1.9125,-1.9112,-1.9115,-1.9104,-1.9102,-1.9101,-1.9095,-1.9093,-1.9099,-1.9103,-1.9108,-1.9132,-1.913,-1.9144,-1.9149,-1.9153,-1.9156,-1.9169,-1.9175,-1.911,-1.911,-1.911,0,0,-1.9131,-1.9125,-1.9131,-1.9132,-1.9129,-1.9138,-1.9112,-1.9121,-1.9127,-1.9103,-1.9117,-1.9112,-1.911,-1.913,-1.9138,-1.9127,-1.9174,-1.9157,-1.916,-1.9161,-1.9172,-1.9179,-1.9184,-1.9112,-1.9112,-1.9111,0,0,-1.9172,-1.9168,-1.9183,-1.9181,-1.9177,-1.9168,-1.9172,-1.9164,-1.916,-1.9174,-1.9156,-1.9163,-1.9173,-1.9172,-1.9173,-1.9214,-1.9199,-1.9216,-1.9242,-1.9254,-1.9259,-1.9264,-1.9279,-1.9284,-1.9219,-1.9219,-1.9219,0,-1.9198,-1.9209,-1.9193,-1.9204,-1.9205,-1.9183,-1.9198,-1.9197,-1.9195,-1.9197,-1.9184,-1.9197,-1.9194,-1.9213,-1.9223,-1.9224,-1.9228,-1.9216,-1.926,-1.9264,-1.9268,-1.9282,-1.9288,-1.9221,-1.9221,-1.922,-1.922,0,-1.9241,-1.9249,-1.9262,-1.926,-1.9263,-1.9276,-1.9262,-1.9267,-1.9256,-1.9249,-1.9264,-1.9259,-1.9262,-1.9266,-1.9255,-1.9284,-1.9277,-1.9263,-1.9241,-1.9277,-1.9289,-1.9295,-1.9224,-1.9223,-1.9222,-1.9222,0,0,-1.9303,-1.9292,-1.9297,-1.9296,-1.929,-1.9296,-1.9309,-1.9311,-1.9316,-1.9315,-1.9325,-1.9335,-1.9321,-1.9322,-1.9311,-1.9322,-1.9355,-1.9306,-1.9306,-1.9316,-1.9386,-1.9397,-1.9404,-1.9346,-1.9347,-1.9347,-1.9387,0,-1.9342,-1.9362,-1.9348,-1.9371,-1.9378,-1.9357,-1.9368,-1.9365,-1.9359,-1.9364,-1.9357,-1.9364,-1.9346,-1.9346,-1.9356,-1.9349,-1.9369,-1.9346,-1.9355,-1.9356,-1.9357,-1.941,-1.9422,-1.9459,-1.9392,-1.9392,-1.9393,0,-1.939,-1.9392,-1.9415,-1.9407,-1.941,-1.942,-1.9421,-1.9427,-1.9424,-1.9418,-1.942,-1.9406,-1.9418,-1.9397,-1.9414,-1.9398,-1.9401,-1.9399,-1.94,-1.94,-1.9377,-1.9412,-1.9471,-1.9477,-1.9401,-1.94,-1.9399,0,-1.9433,-1.9441,-1.9456,-1.9455,-1.9447,-1.9454,-1.9451,-1.9447,-1.945,-1.9451,-1.9453,-1.9456,-1.9458,-1.9461,-1.9449,-1.9435,-1.9467,-1.9445,-1.9463,-1.9464,-1.9471,-1.9471,-1.9531,-1.9473,-1.9473,-1.9473,-1.9473,0,-1.9478,-1.9494,-1.9475,-1.9484,-1.95,-1.9484,-1.9501,-1.9496,-1.9492,-1.95,-1.9482,-1.9491,-1.9474,-1.9481,-1.9471,-1.9487,-1.9488,-1.9484,-1.9481,-1.9485,-1.9486,-1.9487,-1.9484,-1.9475,-1.9474,-1.9474,-1.9474,0,-1.9529,-1.9517,-1.9532,-1.9523,-1.9521,-1.9533,-1.9525,-1.9534,-1.9526,-1.9536,-1.9538,-1.9526,-1.9533,-1.9521,-1.9526,-1.952,-1.9542,-1.9535,-1.9542,-1.9541,-1.956,-1.9558,-1.9623,-1.9631,-1.9568,-1.9568,-1.9569,0,-1.9559,-1.957,-1.9562,-1.9565,-1.9563,-1.957,-1.9572,-1.9557,-1.956,-1.9558,-1.9567,-1.9572,-1.9575,-1.9587,-1.9579,-1.9584,-1.9577,-1.96,-1.9578,-1.9582,-1.9578,-1.9577,-1.9578,-1.9604,-1.9605,-1.9606,-1.9606,0,-1.9612,-1.9606,-1.961,-1.9612,-1.9615,-1.9616,-1.9616,-1.962,-1.9604,-1.9609,-1.9616,-1.9618,-1.9624,-1.9629,-1.9631,-1.9629,-1.9615,-1.9613,-1.9617,-1.9622,-1.9626,-1.9624,-1.9555,-1.9612,-1.9611,-1.9611,-1.961,-1.961,-1.9653,-1.9662,-1.9658,-1.9663,-1.9661,-1.9661,-1.9669,-1.9662,-1.9667,-1.9669,-1.966,-1.9669,-1.9666,-1.9668,-1.9667,-1.9674,-1.9664,-1.967,-1.9672,-1.9674,-1.9677,-1.9625,-1.9674,-1.9674,-1.9674,-1.9674,-1.9673,0,-1.9706,-1.9702,-1.9707,-1.9707,-1.9711,-1.9698,-1.9697,-1.9701,-1.9709,-1.9707,-1.9711,-1.9718,-1.9724,-1.9716,-1.972,-1.9727,-1.9721,-1.9729,-1.9728,-1.9728,-1.9685,-1.9681,-1.9734,-1.9734,-1.9734,-1.9734,-1.9734,-1.9734,-1.9734,-1.9748,-1.9741,-1.9755,-1.9751,-1.9759,-1.976,-1.976,-1.9758,-1.9767,-1.9772,-1.9767,-1.9763,-1.9766,-1.9771,-1.9769,-1.9771,-1.9781,-1.9777,-1.9737,-1.9731,-1.9726,-1.9721,-1.9782,-1.9782,-1.9819,-1.9819,-1.982]}]]